When you browse on this site, cookies collect data to enhance your experience and personalize the content and advertising you see.
Visit our Privacy Policy to learn more. By continuing to use the site, you agree to this use of cookies and data.
  • In Lithuania
  • List of Countries
  • For 7 days
  • Water Temperature
  • Satellite Maps
  • Weather Map
  • Weather Widgets
  • user-avatar
    Login

    Hourly Weather Pervomayskiy

    Today, 19 May, Sunday

    Time Temperature Precipitation Wind Pressure Humidity
    00:00 +17°C° 0 mm 5 mps 749 mmHg 54%
    01:00 +16°C° 0 mm 5 mps 749 mmHg 53%
    02:00 +16°C° 0 mm 5 mps 749 mmHg 53%
    03:00 +15°C° 0 mm 5 mps 749 mmHg 50%
    04:00 +15°C° 0 mm 5 mps 749 mmHg 53%
    05:00 +15°C° 0 mm 5 mps 749 mmHg 57%
    06:00 +14°C° 0 mm 5 mps 749 mmHg 60%
    07:00 +16°C° 0 mm 5 mps 749 mmHg 57%
    08:00 +19°C° 0 mm 5 mps 750 mmHg 53%
    09:00 +21°C° 0 mm 6 mps 750 mmHg 49%
    10:00 +22°C° 0 mm 6 mps 750 mmHg 48%
    11:00 +23°C° 0 mm 6 mps 750 mmHg 47%
    12:00 +25°C° 0 mm 5 mps 750 mmHg 46%
    13:00 +26°C° 0 mm 5 mps 750 mmHg 45%
    14:00 +26°C° 0 mm 5 mps 750 mmHg 44%
    15:00 +27°C° 0 mm 4 mps 750 mmHg 43%
    16:00 +26°C° 0 mm 3 mps 750 mmHg 47%
    17:00 +26°C° 0 mm 3 mps 750 mmHg 50%
    18:00 +25°C° 0 mm 3 mps 750 mmHg 53%
    19:00 +24°C° 0 mm 3 mps 750 mmHg 55%
    20:00 +21°C° 0 mm 2 mps 751 mmHg 57%
    21:00 +19°C° 0 mm 2 mps 751 mmHg 59%
    22:00 +18°C° 0 mm 3 mps 751 mmHg 61%
    23:00 +17°C° 0 mm 3 mps 751 mmHg 64%

    Tomorrow, 20 May, Monday

    Time Temperature Precipitation Wind Pressure Humidity
    00:00 +17°C° 0 mm 4 mps 752 mmHg 66%
    01:00 +15°C° 0 mm 4 mps 752 mmHg 65%
    02:00 +15°C° 0 mm 4 mps 752 mmHg 64%
    03:00 +14°C° 0 mm 4 mps 753 mmHg 64%
    04:00 +14°C° 0 mm 4 mps 753 mmHg 66%
    05:00 +14°C° 0 mm 4 mps 753 mmHg 68%
    06:00 +14°C° 0 mm 4 mps 753 mmHg 70%
    07:00 +17°C° 0 mm 4 mps 754 mmHg 66%
    08:00 +19°C° 0 mm 4 mps 754 mmHg 61%
    09:00 +21°C° 0 mm 4 mps 754 mmHg 57%
    10:00 +22°C° 0 mm 5 mps 754 mmHg 54%
    11:00 +23°C° 0 mm 5 mps 754 mmHg 51%
    12:00 +25°C° 0 mm 5 mps 754 mmHg 48%
    13:00 +25°C° 0 mm 4 mps 754 mmHg 47%
    14:00 +25°C° 0 mm 4 mps 754 mmHg 46%
    15:00 +25°C° 0 mm 4 mps 754 mmHg 45%
    16:00 +25°C° 0 mm 4 mps 754 mmHg 48%
    17:00 +23°C° 0 mm 4 mps 754 mmHg 51%
    18:00 +22°C° 0 mm 3 mps 754 mmHg 53%
    19:00 +20°C° 0 mm 3 mps 755 mmHg 55%
    20:00 +18°C° 0 mm 3 mps 755 mmHg 58%
    21:00 +17°C° 0 mm 3 mps 755 mmHg 60%
    22:00 +16°C° 0 mm 3 mps 755 mmHg 59%
    23:00 +14°C° 0 mm 3 mps 755 mmHg 58%

    Day after tomorrow, 21 May, Tuesday

    Time Temperature Precipitation Wind Pressure Humidity
    00:00 +13°C° 0 mm 3 mps 756 mmHg 56%
    01:00 +13°C° 0 mm 3 mps 756 mmHg 57%
    02:00 +12°C° 0 mm 3 mps 756 mmHg 58%
    03:00 +12°C° 0 mm 3 mps 756 mmHg 59%
    04:00 +12°C° 0 mm 3 mps 756 mmHg 61%
    05:00 +12°C° 0 mm 3 mps 756 mmHg 64%
    06:00 +12°C° 0 mm 3 mps 756 mmHg 67%
    07:00 +14°C° 0 mm 3 mps 757 mmHg 61%
    08:00 +17°C° 0 mm 4 mps 757 mmHg 54%
    09:00 +19°C° 0 mm 4 mps 757 mmHg 48%
    10:00 +20°C° 0 mm 5 mps 757 mmHg 46%
    11:00 +21°C° 0 mm 5 mps 757 mmHg 45%
    12:00 +22°C° 0 mm 5 mps 757 mmHg 43%
    13:00 +23°C° 0 mm 5 mps 757 mmHg 43%
    14:00 +23°C° 0 mm 5 mps 757 mmHg 43%
    15:00 +23°C° 0 mm 5 mps 756 mmHg 43%
    16:00 +23°C° 0 mm 5 mps 756 mmHg 46%
    17:00 +22°C° 0 mm 4 mps 755 mmHg 50%
    18:00 +22°C° 0 mm 4 mps 755 mmHg 53%
    19:00 +20°C° 0 mm 3 mps 755 mmHg 56%
    20:00 +18°C° 0 mm 3 mps 755 mmHg 59%
    21:00 +16°C° 0 mm 3 mps 755 mmHg 61%
    22:00 +16°C° 0 mm 3 mps 755 mmHg 60%
    23:00 +14°C° 0 mm 4 mps 755 mmHg 58%

    22 May, Wednesday

    Time Temperature Precipitation Wind Pressure Humidity
    00:00 +14°C° 0 mm 4 mps 755 mmHg 56%
    01:00 +14°C° 0 mm 4 mps 754 mmHg 55%
    02:00 +14°C° 0 mm 4 mps 754 mmHg 55%
    03:00 +13°C° 0 mm 4 mps 754 mmHg 54%
    04:00 +13°C° 0 mm 4 mps 754 mmHg 59%
    05:00 +13°C° 0 mm 4 mps 753 mmHg 63%
    06:00 +13°C° 0 mm 4 mps 753 mmHg 67%
    07:00 +14°C° 0 mm 4 mps 753 mmHg 62%
    08:00 +16°C° 0 mm 5 mps 753 mmHg 56%
    09:00 +17°C° 0 mm 6 mps 753 mmHg 50%
    10:00 +19°C° 0 mm 6 mps 753 mmHg 47%
    11:00 +20°C° 0 mm 6 mps 753 mmHg 44%
    12:00 +21°C° 0 mm 6 mps 752 mmHg 41%
    13:00 +22°C° 0 mm 6 mps 752 mmHg 41%
    14:00 +22°C° 0 mm 6 mps 752 mmHg 41%
    15:00 +23°C° 0 mm 6 mps 751 mmHg 41%
    16:00 +22°C° 0 mm 5 mps 751 mmHg 47%
    17:00 +21°C° 0 mm 4 mps 751 mmHg 52%
    18:00 +20°C° 0 mm 3 mps 751 mmHg 58%
    19:00 +20°C° 0 mm 3 mps 751 mmHg 64%
    20:00 +19°C° 0 mm 3 mps 751 mmHg 69%
    21:00 +18°C° 0 mm 3 mps 750 mmHg 75%
    22:00 +17°C° 0.1 mm 3 mps 750 mmHg 82%
    23:00 +17°C° 0.1 mm 3 mps 750 mmHg 88%

    23 May, Thursday

    Time Temperature Precipitation Wind Pressure Humidity
    00:00 +16°C° 0.1 mm 3 mps 750 mmHg 94%
    01:00 +16°C° 0.1 mm 3 mps 750 mmHg 94%
    02:00 +16°C° 0.1 mm 3 mps 749 mmHg 93%
    03:00 +16°C° 0.1 mm 3 mps 749 mmHg 93%
    04:00 +16°C° 0.1 mm 3 mps 749 mmHg 92%
    05:00 +14°C° 0.1 mm 3 mps 749 mmHg 92%
    06:00 +14°C° 0.1 mm 3 mps 749 mmHg 92%
    07:00 +16°C° 0.1 mm 3 mps 749 mmHg 91%
    08:00 +16°C° 0.1 mm 3 mps 749 mmHg 89%
    09:00 +17°C° 0.1 mm 3 mps 749 mmHg 88%
    10:00 +17°C° 0.4 mm 3 mps 749 mmHg 86%
    11:00 +18°C° 0.4 mm 4 mps 749 mmHg 83%
    12:00 +18°C° 0.4 mm 4 mps 749 mmHg 81%
    13:00 +19°C° 0.4 mm 5 mps 748 mmHg 77%
    14:00 +20°C° 0.4 mm 5 mps 748 mmHg 72%
    15:00 +21°C° 0.4 mm 5 mps 748 mmHg 68%
    16:00 +21°C° 0.7 mm 5 mps 748 mmHg 70%
    17:00 +20°C° 0.7 mm 5 mps 748 mmHg 72%
    18:00 +20°C° 0.7 mm 4 mps 748 mmHg 74%
    19:00 +19°C° 0.1 mm 4 mps 748 mmHg 77%
    20:00 +18°C° 0.1 mm 4 mps 748 mmHg 81%
    21:00 +17°C° 0.1 mm 4 mps 748 mmHg 85%
    22:00 +17°C° 0 mm 4 mps 748 mmHg 86%
    23:00 +17°C° 0 mm 4 mps 748 mmHg 87%

    24 May, Friday

    Time Temperature Precipitation Wind Pressure Humidity
    00:00 +16°C° 0 mm 3 mps 748 mmHg 89%
    01:00 +16°C° 0 mm 3 mps 748 mmHg 90%
    02:00 +14°C° 0 mm 3 mps 748 mmHg 91%
    03:00 +14°C° 0 mm 3 mps 748 mmHg 92%
    04:00 +14°C° 0 mm 3 mps 748 mmHg 91%
    05:00 +16°C° 0 mm 3 mps 748 mmHg 90%
    06:00 +16°C° 0 mm 3 mps 748 mmHg 89%
    07:00 +18°C° 0.2 mm 3 mps 749 mmHg 82%
    08:00 +20°C° 0.2 mm 3 mps 749 mmHg 76%
    09:00 +21°C° 0.2 mm 4 mps 749 mmHg 69%
    10:00 +23°C° 0.3 mm 4 mps 749 mmHg 64%
    11:00 +25°C° 0.3 mm 4 mps 749 mmHg 59%
    12:00 +26°C° 0.3 mm 4 mps 749 mmHg 53%
    13:00 +26°C° 0.4 mm 4 mps 748 mmHg 53%
    14:00 +26°C° 0.4 mm 4 mps 748 mmHg 53%
    15:00 +26°C° 0.4 mm 5 mps 748 mmHg 53%
    16:00 +25°C° 0 mm 4 mps 748 mmHg 55%
    17:00 +25°C° 0 mm 4 mps 748 mmHg 57%
    18:00 +23°C° 0 mm 4 mps 748 mmHg 59%
    19:00 +21°C° 0 mm 4 mps 748 mmHg 64%
    20:00 +20°C° 0 mm 3 mps 748 mmHg 69%
    21:00 +18°C° 0 mm 3 mps 748 mmHg 74%
    22:00 +17°C° 0 mm 2 mps 748 mmHg 75%
    23:00 +17°C° 0 mm 2 mps 748 mmHg 77%
    Show more